Voltar ao catálogo

STARLINK-34582

AtivoComunicaçõesVLEO
NORAD 64781·PAYLOAD·🇺🇸 United States

Lançado Jul 8, 2025 de Cape Canaveral Space Force Station

Loading…

Próximas Passagens (próximas 24 horas)

TLE

AtualizadoSource: CelesTrak SupGP

Época: Sep 15, 2026, 03:39 UTC

1 64781C 25147AC  26258.15256944 -.00030223  00000+0 -89289-3 0  2582
2 64781  53.1583  78.3587 0001168  85.4365 169.1641 15.34407744    16

Acompanhe STARLINK-34582 em tempo real com AllMySat

Download on the App Store